Regional Weather Roundup
Issued by NWS

Home | Current Version | Previous Version | Text Only | Print | Product List | Glossary Off
Versions: 1 2 3 4 5 6 7 8 9 10 11 12 13 14 15 16 17 18 19 20 21 22 23 24 25 26 27 28 29 30 31 32 33 34 35 36 37 38 39 40 41 42 43 44 45 46 47 48 49 50

138
ASUS43 KFSD 212210
RWRSD

WEATHER ROUNDUP FOR SOUTH DAKOTA
NATIONAL WEATHER SERVICE SIOUX FALLS SD
500 PM CDT SAT OCT 21 2017

NOTE: "FAIR" INDICATES FEW OR NO CLOUDS BELOW 12,000 FEET WITH NO
SIGNIFICANT WEATHER AND/OR OBSTRUCTIONS TO VISIBILITY.


SDZ001>005-009-010-012>017-212300-
NORTHWEST AND NORTH CENTRAL SOUTH DAKOTA

CITY           SKY/WX    TMP DP  RH WIND       PRES   REMARKS
BUFFALO          N/A     53  23  31 NW33G41   29.75R
MOBRIDGE       CLOUDY    55  38  52 NW22G28   29.72R
$$

SDZ012>016-024>037-041>051-057-063-072>074-212300-
SOUTHWEST AND SOUTH CENTRAL SOUTH DAKOTA

CITY           SKY/WX    TMP DP  RH WIND       PRES   REMARKS
RAPID CTY ARPT SUNNY     57  21  24 NW21G26   29.86R
PIERRE         PTSUNNY   58  35  42 NW18G29   29.78R
CUSTER         LGT RAIN  45  11  25 W18G35    29.91R
ELLSWORTH AFB  MOSUNNY   56  21  25 N21       29.85R
PHILIP         CLOUDY    58  28  32 NW26G37   29.84R
PINE RIDGE     SUNNY     58  15  18 W21G35    29.90R
SPEARFISH      FAIR      52  18  25 NW20G30   29.88R
WINNER         FAIR      60  31  33 NW21G31   29.84R
$$

SDZ004>011-016>023-039-040-212300-
NORTHEAST SOUTH DAKOTA

CITY           SKY/WX    TMP DP  RH WIND       PRES   REMARKS
ABERDEEN       CLOUDY    50  45  83 SW6       29.73R
WATERTOWN      CLOUDY    50  41  71 W16G28    29.71R
BROOKINGS      CLOUDY    52  41  66 W21G28    29.74R
SISSETON         N/A     56  42  59 W18       29.67R
$$

SDZ017-020-022-023-036>040-048>070-212300-
SOUTHEAST SOUTH DAKOTA

CITY           SKY/WX    TMP DP  RH WIND       PRES   REMARKS
SIOUX FALLS    CLOUDY    55  42  61 NW18G24   29.77R
HURON          CLOUDY    53  42  66 W10       29.78R
CHAMBERLAIN    SUNNY     59  36  42 W18G25    29.83R
MITCHELL       CLOUDY    53  43  68 W13       29.81R
YANKTON        CLOUDY    55  39  54 NW21      29.81R
$$

ABBREVIATIONS USED IN REMARKS
   TC - TEMPERATURE IN CELSIUS
  WCI - WIND CHILL INDEX
   HX - HEAT INDEX
  VSB - VISIBILITY





USA.gov is the U.S. government's official web portal to all federal, state and local government web resources and services.